Location: Kalberh�ni
(46.4610°N, 7.2453°E)
Time: 12:57:36
(UTC+00:00)

Cosmos 1626 - Visible Passes

Search period start: 23 October 2021 00:00
Search period end: 02 November 2021 00:00
Orbit: 489 x 491 km, 82.5° (Epoch: 22 October)

Date Brightness Start Highest point End Pass type
(mag) Time Alt. Az. Time Alt. Az. Time Alt. Az.
23 Oct 2.7 04:03:45 10° S 04:07:23 58° E 04:11:02 10° NNE visible
24 Oct 3.5 03:41:02 10° SSE 03:44:27 38° E 03:47:54 10° NNE visible
24 Oct 3.7 05:17:27 10° WSW 05:19:50 16° WNW 05:22:13 10° NNW visible
25 Oct 4.3 03:20:26 22° ESE 03:21:33 25° E 03:24:38 10° NNE visible
25 Oct 3.2 04:55:02 17° WSW 04:56:42 23° WNW 04:59:42 10° NNW visible
26 Oct 4.9 02:59:13 17° ENE 02:59:13 17° ENE 03:01:12 10° NE visible
26 Oct 2.8 04:33:48 33° WNW 04:33:48 33° WNW 04:37:01 10° N visible
27 Oct 3.3 04:12:09 29° NNW 04:12:09 29° NNW 04:14:12 10° N visible
28 Oct 4.3 03:50:16 18° N 03:50:16 18° N 03:51:17 10° N visible
29 Oct 5.0 03:28:13 10° NNE 03:28:13 10° NNE 03:28:15 10° NNE visible
